DELTA 1 DEB, 12647

Orbit data source: Space-Track

DELTA 1 DEB, 12647 is space debris in LEO originally from a launch on Thu, 29 Jul 1976 UTC launched from the Air Force Western Test Range (AFWTR). Debris objects in space refer to the collection of defunct objects orbiting the Earth. Examples of debris include non-operational satellites, rocket bodies, and fragments generated from explosions, collisions, or faulty payload assembly.

Loading next visibility...
Identifier
12647, 1976-077EA
Orbit
LEO
Country
Flag of USUS
Related business
Manufacturer
Unknown
Mission
Spacecraft
Bus & Motor
Unknown
Mass
Unknown
Launch date (UTC)
1976-07-29 (49 years ago)
Launch vehicle
Unknown
Launch site
Air Force Western Test Range (AFWTR)
Object type
Payload
Rocket body
Debris
Shape & HBR
Unknown shape, 0.1 m
Radar Cross Section
Small (<0.1 m²)

Expand to show TLE details & history
Last TLE update: 1 day ago

TLE from 1 day ago
0 DELTA 1 DEB
1 12647U 76077EA  25288.26031956  .00001636  00000-0  20088-1 0  9999
2 12647 100.6757  49.2226 0374134 300.5350  84.9910 11.86535939 58870
Epoch: 2025-10-15T06:14Z
TLE epoch observation values (Epoch: 2025-10-15T06:14:51.609Z)
Latitude
29.28752°
Longitude
-74.56982°
Altitude
1,729.837 km
Speed
7.022 km/s
True Right ascension
02h 52m 43s
True Declination
29° 09' 31"
Sunlit
Object was in full shadow at epoch
Visualization orbit readout
Latitude
Unknown
Longitude
Unknown
Altitude
Unknown
Speed
Unknown
Apparent Right ascension
Unknown
Apparent Declination
Unknown
Sunlit
N/A
Visualization observer readout
Local Sidereal Time
09:08:24
Azimuth
Unknown
Elevation
Unknown
Doppler factor
Unknown
Orbital elements
Apogee altitude
2,042.979 km
Perigee altitude
1,435.579 km
Semi-major axis
8,117.416 km
Eccentricity
0.03741
Inclination
100.6757°
RAAN
49.2226°
Arg. of periapsis
300.535°
True anomaly
89.2754°
Mean anomaly
84.991°
Eccentric anomaly
87.13194°
Mean motion
2.96768 °/min
Orbital period
121.31 mins
BSTAR
0.020088
Loading maneuver chart data...
Computing Atmospheric mass density...
Loading historical data...
Loading historical data...
Loading historical data...
Loading historical data...
Loading historical data...
Loading historical data...
Loading historical data...

Documentation

Showing up to 5 results
|